Simultaneous Nadir Overpasses (SNOs) Predictions

Prediction of SNOs between GOES-17 and NOAA-19 Satellite Orbit:

Table of predicted SNOs for the next 14.0 days since TLE Epoch: 9/9/2023
Index Date Time (GOES-17) GOES-17 Lat,Lon NOAA-19 Lat,Lon Distance(km) Time Diff (sec)
1 09/10/2023 04:01:00 0.00,-104.68 -0.82,-108.31 413.24 80
2 09/11/2023 03:48:55 0.00,-104.68 -0.16,-105.36 77.62 80
3 09/12/2023 03:34:10 0.00,-104.68 0.55,-102.42 258.16 80
4 09/14/2023 15:54:05 -0.00,-104.71 0.59,-107.15 278.41 80
5 09/15/2023 15:44:41 0.00,-104.72 -0.11,-104.21 57.62 80
6 09/16/2023 15:32:36 0.00,-104.72 -0.81,-101.27 393.65 80
7 09/18/2023 04:04:42 -0.00,-104.69 -1.00,-108.97 488.16 80
8 09/19/2023 03:52:38 -0.00,-104.69 -0.28,-106.04 152.31 80
9 09/20/2023 03:37:52 0.00,-104.69 0.39,-103.09 183.51 80
10 09/22/2023 15:57:49 0.00,-104.71 0.72,-107.83 355.37 80
